TimeCST,TemperatureF,Dew PointF,Humidity,Sea Level PressureIn,VisibilityMPH,Wind Direction,Wind SpeedMPH,Gust SpeedMPH,PrecipitationIn,Events,Conditions,WindDirDegrees,DateUTC
12:15 AM,5.0,1.4,85,30.35,1.8,North,26.5,35.7,N/A,Snow,Light Snow,360,2014-02-05 06:15:00
12:35 AM,5.0,-0.4,78,30.35,1.8,North,23.0,33.4,N/A,Snow,Light Snow,360,2014-02-05 06:35:00
12:55 AM,5.0,-0.4,78,30.36,1.8,North,21.9,35.7,N/A,Snow,Light Snow,10,2014-02-05 06:55:00
1:15 AM,5.0,-0.4,78,30.36,2.0,North,24.2,-,N/A,Snow,Light Snow,360,2014-02-05 07:15:00
1:35 AM,3.2,-0.4,85,30.37,2.0,North,26.5,32.2,N/A,Snow,Light Snow,360,2014-02-05 07:35:00
1:55 AM,3.2,-2.2,78,30.38,2.5,North,21.9,29.9,N/A,Snow,Light Snow,350,2014-02-05 07:55:00
2:15 AM,3.2,-2.2,78,30.39,3.0,North,17.3,26.5,N/A,Snow,Light Snow,350,2014-02-05 08:15:00
2:35 AM,3.2,-2.2,78,30.40,3.0,North,20.7,29.9,N/A,Snow,Light Snow,350,2014-02-05 08:35:00
2:55 AM,3.2,-2.2,78,30.40,4.0,North,19.6,27.6,N/A,Snow,Light Snow,350,2014-02-05 08:55:00
3:15 AM,3.2,-2.2,78,30.41,4.0,North,23.0,29.9,N/A,Snow,Light Snow,350,2014-02-05 09:15:00
3:35 AM,3.2,-4.0,72,30.41,6.0,North,21.9,29.9,N/A,Snow,Light Snow,350,2014-02-05 09:35:00
3:55 AM,3.2,-4.0,72,30.42,7.0,North,20.7,28.8,N/A,,Overcast,350,2014-02-05 09:55:00
4:15 AM,1.4,-4.0,78,30.44,9.0,North,18.4,26.5,N/A,,Overcast,350,2014-02-05 10:15:00
4:35 AM,1.4,-4.0,78,30.44,7.0,North,20.7,27.6,N/A,,Overcast,350,2014-02-05 10:35:00
4:55 AM,1.4,-4.0,78,30.45,9.0,NNW,17.3,25.3,N/A,,Overcast,340,2014-02-05 10:55:00
5:15 AM,1.4,-4.0,78,30.46,9.0,North,18.4,24.2,N/A,Snow,Light Snow,350,2014-02-05 11:15:00
5:35 AM,3.2,-4.0,72,30.47,9.0,North,18.4,26.5,N/A,,Overcast,350,2014-02-05 11:35:00
5:55 AM,3.2,-4.0,72,30.48,6.0,North,20.7,31.1,N/A,Snow,Light Snow,350,2014-02-05 11:55:00
6:15 AM,3.2,-4.0,72,30.49,9.0,North,21.9,28.8,N/A,,Overcast,350,2014-02-05 12:15:00
6:35 AM,1.4,-4.0,78,30.50,10.0,North,16.1,26.5,N/A,,Overcast,350,2014-02-05 12:35:00
6:55 AM,1.4,-4.0,78,30.50,10.0,North,19.6,27.6,N/A,,Overcast,350,2014-02-05 12:55:00
7:15 AM,1.4,-4.0,78,30.51,8.0,North,21.9,-,N/A,Snow,Light Snow,350,2014-02-05 13:15:00
7:35 AM,1.4,-4.0,78,30.52,5.0,North,18.4,24.2,N/A,Snow,Light Snow,350,2014-02-05 13:35:00
7:55 AM,1.4,-4.0,78,30.54,6.0,North,16.1,24.2,N/A,Snow,Light Snow,350,2014-02-05 13:55:00
8:15 AM,1.4,-4.0,78,30.55,9.0,North,13.8,23.0,N/A,,Mostly Cloudy,350,2014-02-05 14:15:00
8:35 AM,1.4,-4.0,78,30.56,7.0,NNW,15.0,24.2,N/A,Snow,Light Snow,340,2014-02-05 14:35:00
8:55 AM,3.2,-4.0,72,30.56,4.0,North,18.4,-,N/A,Snow,Light Snow,350,2014-02-05 14:55:00
9:15 AM,3.2,-4.0,72,30.56,5.0,North,20.7,-,N/A,,Haze,350,2014-02-05 15:15:00
9:35 AM,3.2,-4.0,72,30.56,6.0,North,23.0,29.9,N/A,,Haze,350,2014-02-05 15:35:00
9:55 AM,3.2,-4.0,72,30.57,10.0,North,21.9,27.6,N/A,,Partly Cloudy,350,2014-02-05 15:55:00
10:15 AM,5.0,-4.0,66,30.58,10.0,North,19.6,27.6,N/A,,Mostly Cloudy,350,2014-02-05 16:15:00
10:35 AM,5.0,-4.0,66,30.58,10.0,North,23.0,-,N/A,,Mostly Cloudy,350,2014-02-05 16:35:00
10:55 AM,5.0,-2.2,72,30.59,10.0,North,16.1,25.3,N/A,,Mostly Cloudy,360,2014-02-05 16:55:00
11:15 AM,6.8,-4.0,61,30.59,10.0,North,18.4,28.8,N/A,,Overcast,350,2014-02-05 17:15:00
11:35 AM,6.8,-2.2,67,30.60,10.0,North,16.1,24.2,N/A,,Overcast,350,2014-02-05 17:35:00
11:55 AM,6.8,-2.2,67,30.59,10.0,North,16.1,21.9,N/A,,Mostly Cloudy,350,2014-02-05 17:55:00
12:15 PM,6.8,-2.2,67,30.59,10.0,NNW,15.0,23.0,N/A,,Mostly Cloudy,340,2014-02-05 18:15:00
12:35 PM,8.6,-2.2,62,30.58,10.0,NNW,18.4,26.5,N/A,,Mostly Cloudy,340,2014-02-05 18:35:00
12:55 PM,8.6,-2.2,62,30.57,10.0,NNW,13.8,24.2,N/A,,Mostly Cloudy,340,2014-02-05 18:55:00
1:15 PM,8.6,-2.2,62,30.58,10.0,NNW,13.8,21.9,N/A,,Mostly Cloudy,340,2014-02-05 19:15:00
1:35 PM,8.6,-2.2,62,30.58,10.0,NNW,13.8,20.7,N/A,,Mostly Cloudy,340,2014-02-05 19:35:00
1:55 PM,10.4,-2.2,57,30.58,10.0,NW,15.0,-,N/A,,Mostly Cloudy,320,2014-02-05 19:55:00
2:15 PM,8.6,-4.0,57,30.57,10.0,NNW,15.0,21.9,N/A,,Scattered Clouds,340,2014-02-05 20:15:00
2:35 PM,8.6,-2.2,62,30.56,10.0,NW,18.4,-,N/A,,Mostly Cloudy,320,2014-02-05 20:35:00
2:55 PM,10.4,-2.2,57,30.56,10.0,NNW,17.3,-,N/A,,Mostly Cloudy,330,2014-02-05 20:55:00
3:15 PM,8.6,-2.2,62,30.58,10.0,NNW,13.8,23.0,N/A,,Mostly Cloudy,330,2014-02-05 21:15:00
3:35 PM,8.6,-2.2,62,30.58,10.0,NNW,16.1,-,N/A,,Mostly Cloudy,340,2014-02-05 21:35:00
3:55 PM,8.6,-2.2,62,30.59,10.0,NNW,12.7,-,N/A,,Mostly Cloudy,330,2014-02-05 21:55:00
4:15 PM,8.6,-0.4,67,30.59,10.0,NNW,12.7,18.4,N/A,,Overcast,330,2014-02-05 22:15:00
4:35 PM,8.6,-2.2,62,30.59,10.0,NNW,17.3,-,N/A,,Overcast,330,2014-02-05 22:35:00
4:55 PM,8.6,-2.2,62,30.59,10.0,NNW,15.0,21.9,N/A,,Overcast,330,2014-02-05 22:55:00
5:15 PM,6.8,-4.0,61,30.60,10.0,NNW,11.5,-,N/A,,Scattered Clouds,330,2014-02-05 23:15:00
5:35 PM,6.8,-4.0,61,30.61,10.0,NNW,10.4,-,N/A,,Partly Cloudy,340,2014-02-05 23:35:00
5:55 PM,5.0,-4.0,66,30.62,10.0,NNW,6.9,13.8,N/A,,Partly Cloudy,330,2014-02-05 23:55:00
6:15 PM,5.0,-4.0,66,30.62,10.0,NNW,6.9,-,N/A,,Clear,330,2014-02-06 00:15:00
6:35 PM,3.2,-5.8,66,30.62,10.0,NNW,6.9,-,N/A,,Clear,340,2014-02-06 00:35:00
6:55 PM,3.2,-5.8,66,30.62,10.0,NW,9.2,-,N/A,,Clear,320,2014-02-06 00:55:00
7:15 PM,3.2,-5.8,66,30.63,10.0,NNW,5.8,-,N/A,,Clear,330,2014-02-06 01:15:00
7:35 PM,-0.4,-7.6,72,30.63,10.0,WNW,5.8,-,N/A,,Clear,300,2014-02-06 01:35:00
7:55 PM,-0.4,-7.6,72,30.63,10.0,NW,6.9,-,N/A,,Clear,310,2014-02-06 01:55:00
8:15 PM,-2.2,-7.6,78,30.63,10.0,NW,6.9,-,N/A,,Clear,320,2014-02-06 02:15:00
8:35 PM,-2.2,-7.6,78,30.63,10.0,WNW,6.9,-,N/A,,Clear,300,2014-02-06 02:35:00
8:55 PM,-2.2,-7.6,78,30.63,10.0,WNW,5.8,-,N/A,,Clear,300,2014-02-06 02:55:00
9:15 PM,-4.0,-9.4,78,30.63,10.0,WNW,5.8,-,N/A,,Clear,290,2014-02-06 03:15:00
9:35 PM,-5.8,-11.2,77,30.63,10.0,WNW,5.8,-,N/A,,Partly Cloudy,290,2014-02-06 03:35:00
9:55 PM,-5.8,-11.2,77,30.64,10.0,WNW,5.8,-,N/A,,Partly Cloudy,300,2014-02-06 03:55:00
10:15 PM,-4.0,-9.4,78,30.64,10.0,WNW,6.9,-,N/A,,Clear,300,2014-02-06 04:15:00
10:35 PM,-7.6,-13.0,77,30.64,10.0,WNW,5.8,-,N/A,,Clear,290,2014-02-06 04:35:00
10:55 PM,-5.8,-11.2,77,30.63,10.0,NW,6.9,-,N/A,,Clear,310,2014-02-06 04:55:00
11:15 PM,-4.0,-9.4,78,30.63,10.0,NW,6.9,-,N/A,,Clear,310,2014-02-06 05:15:00
11:35 PM,-5.8,-9.4,84,30.63,10.0,WNW,8.1,-,N/A,,Clear,300,2014-02-06 05:35:00
11:55 PM,-4.0,-9.4,78,30.63,10.0,WNW,5.8,-,N/A,,Clear,300,2014-02-06 05:55:00